Regional Weather Roundup
Issued by NWS Goodland, KS

Home | Current Version | Previous Version | Text Only | Print | Product List | Glossary Off
Versions: 1 2 3 4 5 6 7 8 9 10 11 12 13 14 15 16 17 18 19 20 21 22 23 24 25 26 27 28 29 30 31 32 33 34 35 36 37 38 39 40 41 42 43 44 45 46 47 48 49 50

000
ASUS43 KGLD 271659
RWRGLD

GOODLAND FORECAST AREA HOURLY WEATHER ROUNDUP
NATIONAL WEATHER SERVICE GOODLAND KS
1100 AM MDT WED AUG 27 2014

...OFFICIAL OBSERVATIONS...

CITY           SKY/WX    TMP DP  RH WIND       PRES   REMARKS
GOODLAND KS    CLOUDY    73  65  75 S18       30.13F
HILL CITY KS   PTSUNNY   79  64  60 VRB6      30.12S
IMPERIAL NEB   PTSUNNY   74  65  73 S12       30.12F
MCCOOK NEB     PTSUNNY   75  67  76 SE9       30.13S
AKRON CO       CLOUDY    69  60  73 S14G24    30.14F
BURLINGTON CO  PTSUNNY   72  63  73 S20G26    30.14F
LIMON CO       PTSUNNY   69  57  65 S12       30.19S
$$

...UNOFFICIAL OBSERVATIONS...

CITY           SKY/WX    TMP DP  RH WIND       PRES   REMARKS
COLBY KS       CLOUDY    73  70  88 S12G22    30.14S
GOVE KS          N/A     79  32  18 CALM        N/A
NORTON KS      PTSUNNY   77  61  57 S9        30.13R
SHARON SPRINGS   N/A     70  66  88 S13G20      N/A
WAKEENEY KS      N/A     76  63  62 MISG        N/A
KIT CARSON CO    N/A     70  62  77 MISG        N/A
YUMA CO          N/A     70  62  77 SE12        N/A
$$



USA.gov is the U.S. government's official web portal to all federal, state and local government web resources and services.